Time,TemperatureF,DewpointF,PressureIn,WindDirection,WindDirectionDegrees,WindSpeedMPH,WindSpeedGustMPH,Humidity,HourlyPrecipIn,Conditions,Clouds,dailyrainin,SoftwareType,DateUTC
2013-02-06 00:01:00,32.0,-99.9,30.08,NNW,338,5.0,10.0,-999,0.00,,,0.00,,2013-02-06 06:01:00,
2013-02-06 00:11:00,32.0,-99.9,30.08,NNW,338,5.0,10.0,-999,0.00,,,0.00,,2013-02-06 06:11:00,
2013-02-06 00:22:00,32.0,-99.9,30.09,NW,315,1.0,8.0,-999,0.00,,,0.00,,2013-02-06 06:22:00,
2013-02-06 00:32:00,32.0,-99.9,30.09,North,0,5.0,7.0,-999,0.00,,,0.00,,2013-02-06 06:32:00,
2013-02-06 00:42:00,32.0,-99.9,30.09,North,0,5.0,7.0,-999,0.00,,,0.00,,2013-02-06 06:42:00,
2013-02-06 00:52:00,32.0,-99.9,30.09,NNW,338,2.0,8.0,-999,0.00,,,0.00,,2013-02-06 06:52:00,
2013-02-06 01:02:00,31.0,-99.9,30.09,North,0,6.0,7.0,-999,0.00,,,0.00,,2013-02-06 07:02:00,
2013-02-06 01:11:00,31.0,-99.9,30.09,North,0,6.0,7.0,-999,0.00,,,0.00,,2013-02-06 07:11:00,
2013-02-06 01:22:00,31.0,-99.9,30.10,North,0,3.0,8.0,-999,0.00,,,0.00,,2013-02-06 07:22:00,
2013-02-06 01:32:00,32.0,-99.9,30.11,North,0,5.0,9.0,-999,0.00,,,0.00,,2013-02-06 07:32:00,
2013-02-06 01:42:00,32.0,-99.9,30.11,North,0,5.0,9.0,-999,0.00,,,0.00,,2013-02-06 07:42:00,
2013-02-06 01:52:00,31.0,-99.9,30.11,NNE,23,1.0,5.0,-999,0.00,,,0.00,,2013-02-06 07:52:00,
2013-02-06 02:01:00,31.0,-99.9,30.11,North,0,0.0,9.0,-999,0.00,,,0.00,,2013-02-06 08:01:00,
2013-02-06 02:11:00,31.0,-99.9,30.11,North,0,0.0,9.0,-999,0.00,,,0.00,,2013-02-06 08:11:00,
2013-02-06 02:21:00,32.0,-99.9,30.12,NNE,23,0.0,5.0,-999,0.00,,,0.00,,2013-02-06 08:21:00,
2013-02-06 02:32:00,32.0,-99.9,30.12,NNE,23,6.0,6.0,-999,0.00,,,0.00,,2013-02-06 08:32:00,
2013-02-06 02:42:00,32.0,-99.9,30.12,NNE,23,6.0,6.0,-999,0.00,,,0.00,,2013-02-06 08:42:00,
2013-02-06 02:53:00,32.0,-99.9,30.11,NNE,23,2.0,8.0,-999,0.00,,,0.00,,2013-02-06 08:53:00,
2013-02-06 03:02:00,31.0,-99.9,30.12,NE,45,0.0,3.0,-999,0.00,,,0.00,,2013-02-06 09:02:00,
2013-02-06 03:11:00,31.0,-99.9,30.12,NE,45,0.0,3.0,-999,0.00,,,0.00,,2013-02-06 09:11:00,
2013-02-06 03:22:00,31.0,-99.9,30.13,NE,45,0.0,0.0,-999,0.00,,,0.00,,2013-02-06 09:22:00,
2013-02-06 03:32:00,31.0,-99.9,30.13,NE,45,0.0,0.0,-999,0.00,,,0.00,,2013-02-06 09:32:00,
2013-02-06 03:42:00,31.0,-99.9,30.13,NE,45,0.0,0.0,-999,0.00,,,0.00,,2013-02-06 09:42:00,
2013-02-06 03:52:00,31.0,-99.9,30.14,NE,45,0.0,0.0,-999,0.00,,,0.00,,2013-02-06 09:52:00,
2013-02-06 04:01:00,31.0,-99.9,30.14,NE,45,0.0,0.0,-999,0.00,,,0.00,,2013-02-06 10:01:00,
2013-02-06 04:11:00,31.0,-99.9,30.14,NE,45,0.0,0.0,-999,0.00,,,0.00,,2013-02-06 10:11:00,
2013-02-06 04:22:00,31.0,-99.9,30.14,NE,45,0.0,0.0,-999,0.00,,,0.00,,2013-02-06 10:22:00,
2013-02-06 04:32:00,31.0,-99.9,30.15,NE,45,0.0,0.0,-999,0.00,,,0.00,,2013-02-06 10:32:00,
2013-02-06 04:42:00,31.0,-99.9,30.15,NE,45,0.0,0.0,-999,0.00,,,0.00,,2013-02-06 10:42:00,
2013-02-06 04:52:00,31.0,-99.9,30.15,NE,45,0.0,0.0,-999,0.00,,,0.00,,2013-02-06 10:52:00,
2013-02-06 05:02:00,31.0,-99.9,30.16,NE,45,0.0,0.0,-999,0.00,,,0.00,,2013-02-06 11:02:00,
2013-02-06 05:11:00,31.0,-99.9,30.16,NE,45,0.0,0.0,-999,0.00,,,0.00,,2013-02-06 11:11:00,
2013-02-06 05:22:00,31.0,-99.9,30.16,NE,45,0.0,0.0,-999,0.00,,,0.00,,2013-02-06 11:22:00,
2013-02-06 05:33:00,31.0,-99.9,30.16,NE,45,0.0,0.0,-999,0.00,,,0.00,,2013-02-06 11:33:00,
2013-02-06 05:42:00,31.0,-99.9,30.16,NE,45,0.0,0.0,-999,0.00,,,0.00,,2013-02-06 11:42:00,
2013-02-06 05:53:00,31.0,-99.9,30.16,NE,45,0.0,0.0,-999,0.00,,,0.00,,2013-02-06 11:53:00,
2013-02-06 06:02:00,31.0,-99.9,30.16,NE,45,0.0,0.0,-999,0.00,,,0.00,,2013-02-06 12:02:00,
2013-02-06 06:12:00,31.0,-99.9,30.16,NE,45,0.0,0.0,-999,0.00,,,0.00,,2013-02-06 12:12:00,
2013-02-06 06:22:00,30.0,-99.9,30.16,NE,45,0.0,0.0,-999,0.00,,,0.00,,2013-02-06 12:22:00,
2013-02-06 06:32:00,29.0,-99.9,30.16,NE,45,0.0,0.0,-999,0.00,,,0.00,,2013-02-06 12:32:00,
2013-02-06 06:42:00,29.0,-99.9,30.16,NE,45,0.0,0.0,-999,0.00,,,0.00,,2013-02-06 12:42:00,
2013-02-06 06:52:00,28.0,-99.9,30.18,NE,45,0.0,0.0,-999,0.00,,,0.00,,2013-02-06 12:52:00,
2013-02-06 07:02:00,28.0,-99.9,30.18,NE,45,0.0,0.0,-999,0.00,,,0.00,,2013-02-06 13:02:00,
2013-02-06 07:12:00,28.0,-99.9,30.18,NE,45,0.0,0.0,-999,0.00,,,0.00,,2013-02-06 13:12:00,
2013-02-06 07:22:00,29.0,-99.9,30.20,NE,45,0.0,0.0,-999,0.00,,,0.00,,2013-02-06 13:22:00,
2013-02-06 07:32:00,29.0,-99.9,30.20,NE,45,0.0,0.0,-999,0.00,,,0.00,,2013-02-06 13:32:00,
2013-02-06 07:42:00,29.0,-99.9,30.20,NE,45,0.0,0.0,-999,0.00,,,0.00,,2013-02-06 13:42:00,
2013-02-06 07:52:00,30.0,-99.9,30.20,NE,45,0.0,0.0,-999,0.00,,,0.00,,2013-02-06 13:52:00,
2013-02-06 08:02:00,31.0,-99.9,30.21,NE,45,0.0,0.0,-999,0.00,,,0.00,,2013-02-06 14:02:00,
2013-02-06 08:11:00,31.0,-99.9,30.21,NE,45,0.0,0.0,-999,0.00,,,0.00,,2013-02-06 14:11:00,
2013-02-06 08:22:00,32.0,-99.9,30.21,ESE,113,3.0,5.0,-999,0.00,,,0.00,,2013-02-06 14:22:00,
2013-02-06 08:32:00,32.0,-99.9,30.21,ESE,113,3.0,5.0,-999,0.00,,,0.00,,2013-02-06 14:32:00,
2013-02-06 08:42:00,32.0,-99.9,30.22,SE,135,6.0,8.0,-999,0.00,,,0.00,,2013-02-06 14:42:00,
2013-02-06 08:52:00,32.0,-99.9,30.22,SE,135,6.0,8.0,-999,0.00,,,0.00,,2013-02-06 14:52:00,
2013-02-06 09:02:00,33.0,-99.9,30.21,SSE,158,8.0,9.0,-999,0.00,,,0.00,,2013-02-06 15:02:00,
2013-02-06 09:11:00,33.0,-99.9,30.21,SE,135,9.0,12.0,-999,0.00,,,0.00,,2013-02-06 15:11:00,
2013-02-06 09:21:00,33.0,-99.9,30.21,SE,135,9.0,12.0,-999,0.00,,,0.00,,2013-02-06 15:21:00,
2013-02-06 09:32:00,34.0,-99.9,30.22,SE,135,10.0,13.0,-999,0.00,,,0.00,,2013-02-06 15:32:00,
2013-02-06 09:42:00,34.0,-99.9,30.22,SE,135,10.0,13.0,-999,0.00,,,0.00,,2013-02-06 15:42:00,
2013-02-06 09:52:00,34.0,-99.9,30.24,SSE,158,8.0,10.0,-999,0.00,,,0.00,,2013-02-06 15:52:00,
2013-02-06 10:01:00,35.0,-99.9,30.24,SSE,158,9.0,10.0,-999,0.00,,,0.00,,2013-02-06 16:01:00,
2013-02-06 10:11:00,35.0,-99.9,30.24,SSE,158,9.0,10.0,-999,0.00,,,0.00,,2013-02-06 16:11:00,
2013-02-06 10:22:00,36.0,-99.9,30.24,SE,135,10.0,13.0,-999,0.00,,,0.00,,2013-02-06 16:22:00,
2013-02-06 10:32:00,36.0,-99.9,30.24,SSE,158,8.0,12.0,-999,0.00,,,0.00,,2013-02-06 16:32:00,
2013-02-06 10:42:00,36.0,-99.9,30.24,SSE,158,8.0,12.0,-999,0.00,,,0.00,,2013-02-06 16:42:00,
2013-02-06 10:52:00,36.0,-99.9,30.24,South,180,7.0,10.0,-999,0.00,,,0.00,,2013-02-06 16:52:00,
2013-02-06 11:02:00,38.0,-99.9,30.26,SE,135,6.0,9.0,-999,0.00,,,0.00,,2013-02-06 17:02:00,
2013-02-06 11:12:00,40.0,-99.9,30.25,ESE,113,6.0,9.0,-999,0.00,,,0.00,,2013-02-06 17:12:00,
2013-02-06 11:22:00,40.0,-99.9,30.25,ESE,113,6.0,9.0,-999,0.00,,,0.00,,2013-02-06 17:22:00,
2013-02-06 11:33:00,40.0,-99.9,30.24,SSE,158,9.0,12.0,-999,0.00,,,0.00,,2013-02-06 17:33:00,
2013-02-06 11:42:00,41.0,-99.9,30.24,ESE,113,3.0,14.0,-999,0.00,,,0.00,,2013-02-06 17:42:00,
2013-02-06 11:53:00,41.0,-99.9,30.24,ESE,113,3.0,14.0,-999,0.00,,,0.00,,2013-02-06 17:53:00,
2013-02-06 12:02:00,42.0,-99.9,30.23,ESE,113,7.0,13.0,-999,0.00,,,0.00,,2013-02-06 18:02:00,
2013-02-06 12:12:00,43.0,-99.9,30.21,SE,135,10.0,14.0,-999,0.00,,,0.00,,2013-02-06 18:12:00,
2013-02-06 12:23:00,43.0,-99.9,30.21,SE,135,10.0,14.0,-999,0.00,,,0.00,,2013-02-06 18:23:00,
2013-02-06 12:33:00,42.0,-99.9,30.21,SSE,158,10.0,15.0,-999,0.00,,,0.00,,2013-02-06 18:33:00,
2013-02-06 12:42:00,42.0,-99.9,30.21,SSE,158,10.0,15.0,-999,0.00,,,0.00,,2013-02-06 18:42:00,
2013-02-06 12:52:00,43.0,-99.9,30.20,South,180,9.0,16.0,-999,0.00,,,0.00,,2013-02-06 18:52:00,
2013-02-06 13:02:00,43.0,-99.9,30.20,SSE,158,9.0,15.0,-999,0.00,,,0.00,,2013-02-06 19:02:00,
2013-02-06 13:11:00,43.0,-99.9,30.20,SSE,158,9.0,15.0,-999,0.00,,,0.00,,2013-02-06 19:11:00,
2013-02-06 13:22:00,40.0,-99.9,30.21,SSW,203,7.0,12.0,-999,0.00,,,0.00,,2013-02-06 19:22:00,
2013-02-06 13:32:00,42.0,-99.9,30.21,South,180,7.0,13.0,-999,0.00,,,0.00,,2013-02-06 19:32:00,
2013-02-06 13:42:00,42.0,-99.9,30.21,South,180,7.0,13.0,-999,0.00,,,0.00,,2013-02-06 19:42:00,
2013-02-06 13:52:00,41.0,-99.9,30.21,South,180,9.0,12.0,-999,0.00,,,0.00,,2013-02-06 19:52:00,
2013-02-06 14:01:00,41.0,-99.9,30.21,South,180,9.0,12.0,-999,0.00,,,0.00,,2013-02-06 20:01:00,
2013-02-06 14:11:00,42.0,-99.9,30.20,South,180,9.0,14.0,-999,0.00,,,0.00,,2013-02-06 20:11:00,
2013-02-06 14:22:00,42.0,-99.9,30.20,South,180,9.0,14.0,-999,0.00,,,0.00,,2013-02-06 20:22:00,
2013-02-06 14:32:00,44.0,-99.9,30.20,South,180,7.0,13.0,-999,0.00,,,0.00,,2013-02-06 20:32:00,
2013-02-06 14:42:00,44.0,-99.9,30.20,South,180,7.0,13.0,-999,0.00,,,0.00,,2013-02-06 20:42:00,
2013-02-06 14:52:00,46.0,-99.9,30.20,South,180,8.0,12.0,-999,0.00,,,0.00,,2013-02-06 20:52:00,
2013-02-06 15:02:00,41.0,-99.9,30.20,South,180,8.0,14.0,-999,0.00,,,0.00,,2013-02-06 21:02:00,
2013-02-06 15:11:00,41.0,-99.9,30.20,South,180,8.0,14.0,-999,0.00,,,0.00,,2013-02-06 21:11:00,
2013-02-06 15:22:00,45.0,-99.9,30.21,South,180,7.0,10.0,-999,0.00,,,0.00,,2013-02-06 21:22:00,
2013-02-06 15:32:00,48.0,-99.9,30.19,South,180,6.0,9.0,-999,0.00,,,0.00,,2013-02-06 21:32:00,
2013-02-06 15:52:00,51.0,-99.9,30.18,SSE,158,8.0,10.0,-999,0.00,,,0.00,,2013-02-06 21:52:00,
2013-02-06 16:01:00,49.0,-99.9,30.17,SSE,158,9.0,10.0,-999,0.00,,,0.00,,2013-02-06 22:01:00,
2013-02-06 16:32:00,44.0,-99.9,30.18,South,180,7.0,8.0,-999,0.00,,,0.00,,2013-02-06 22:32:00,
2013-02-06 16:42:00,44.0,-99.9,30.18,South,180,7.0,8.0,-999,0.00,,,0.00,,2013-02-06 22:42:00,
2013-02-06 16:52:00,41.0,-99.9,30.17,SSE,158,6.0,8.0,-999,0.00,,,0.00,,2013-02-06 22:52:00,
2013-02-06 17:01:00,41.0,-99.9,30.16,SE,135,6.0,7.0,-999,0.00,,,0.00,,2013-02-06 23:01:00,
2013-02-06 17:11:00,41.0,-99.9,30.16,SE,135,6.0,7.0,-999,0.00,,,0.00,,2013-02-06 23:11:00,
2013-02-06 17:21:00,38.0,-99.9,30.16,SE,135,7.0,8.0,-999,0.00,,,0.00,,2013-02-06 23:21:00,
2013-02-06 17:32:00,38.0,-99.9,30.15,SE,135,6.0,7.0,-999,0.00,,,0.00,,2013-02-06 23:32:00,
2013-02-06 17:42:00,38.0,-99.9,30.15,SE,135,6.0,7.0,-999,0.00,,,0.00,,2013-02-06 23:42:00,
2013-02-06 17:52:00,39.0,-99.9,30.13,ESE,113,6.0,7.0,-999,0.00,,,0.00,,2013-02-06 23:52:00,
2013-02-06 18:02:00,37.0,-99.9,30.16,SSE,158,8.0,10.0,-999,0.00,,,0.00,,2013-02-07 00:02:00,
2013-02-06 18:11:00,37.0,-99.9,30.16,SSE,158,8.0,10.0,-999,0.00,,,0.00,,2013-02-07 00:11:00,
2013-02-06 18:22:00,37.0,-99.9,30.16,SE,135,7.0,10.0,-999,0.00,,,0.00,,2013-02-07 00:22:00,
2013-02-06 18:32:00,37.0,-99.9,30.16,ESE,113,7.0,9.0,-999,0.00,,,0.00,,2013-02-07 00:32:00,
2013-02-06 18:42:00,37.0,-99.9,30.16,ESE,113,7.0,9.0,-999,0.00,,,0.00,,2013-02-07 00:42:00,
2013-02-06 18:52:00,37.0,-99.9,30.16,SSE,158,9.0,12.0,-999,0.00,,,0.00,,2013-02-07 00:52:00,
2013-02-06 19:01:00,36.0,-99.9,30.17,SSE,158,7.0,12.0,-999,0.00,,,0.00,,2013-02-07 01:01:00,
2013-02-06 19:11:00,36.0,-99.9,30.17,SSE,158,7.0,12.0,-999,0.00,,,0.00,,2013-02-07 01:11:00,
2013-02-06 19:21:00,37.0,-99.9,30.16,SE,135,12.0,14.0,-999,0.00,,,0.00,,2013-02-07 01:21:00,
2013-02-06 19:32:00,36.0,-99.9,30.16,SE,135,10.0,15.0,-999,0.00,,,0.00,,2013-02-07 01:32:00,
2013-02-06 19:42:00,36.0,-99.9,30.16,SE,135,10.0,15.0,-999,0.00,,,0.00,,2013-02-07 01:42:00,
2013-02-06 19:52:00,36.0,-99.9,30.15,SE,135,12.0,16.0,-999,0.00,,,0.00,,2013-02-07 01:52:00,
2013-02-06 20:02:00,34.0,-99.9,30.14,SE,135,12.0,16.0,-999,0.00,,,0.00,,2013-02-07 02:02:00,
2013-02-06 20:12:00,34.0,-99.9,30.14,SE,135,12.0,16.0,-999,0.00,,,0.00,,2013-02-07 02:12:00,
2013-02-06 20:21:00,35.0,-99.9,30.13,ESE,113,12.0,17.0,-999,0.00,,,0.00,,2013-02-07 02:21:00,
2013-02-06 20:32:00,35.0,-99.9,30.13,SE,135,14.0,18.0,-999,0.00,,,0.00,,2013-02-07 02:32:00,
2013-02-06 20:42:00,35.0,-99.9,30.13,SE,135,14.0,18.0,-999,0.00,,,0.00,,2013-02-07 02:42:00,
2013-02-06 20:52:00,35.0,-99.9,30.13,SE,135,14.0,18.0,-999,0.00,,,0.00,,2013-02-07 02:52:00,
2013-02-06 21:02:00,35.0,-99.9,30.12,ESE,113,14.0,20.0,-999,0.00,,,0.00,,2013-02-07 03:02:00,
2013-02-06 21:11:00,34.0,-99.9,30.13,SE,135,14.0,18.0,-999,0.00,,,0.00,,2013-02-07 03:11:00,
2013-02-06 21:22:00,34.0,-99.9,30.13,SE,135,14.0,18.0,-999,0.00,,,0.00,,2013-02-07 03:22:00,
2013-02-06 21:32:00,34.0,-99.9,30.14,ESE,113,12.0,15.0,-999,0.00,,,0.00,,2013-02-07 03:32:00,
2013-02-06 21:42:00,34.0,-99.9,30.14,ESE,113,12.0,15.0,-999,0.00,,,0.00,,2013-02-07 03:42:00,
2013-02-06 21:52:00,34.0,-99.9,30.14,SE,135,12.0,15.0,-999,0.00,,,0.00,,2013-02-07 03:52:00,
2013-02-06 22:01:00,34.0,-99.9,30.15,SE,135,10.0,15.0,-999,0.00,,,0.00,,2013-02-07 04:01:00,
2013-02-06 22:11:00,34.0,-99.9,30.15,SE,135,10.0,15.0,-999,0.00,,,0.00,,2013-02-07 04:11:00,
2013-02-06 22:22:00,33.0,-99.9,30.15,SE,135,8.0,15.0,-999,0.00,,,0.00,,2013-02-07 04:22:00,
2013-02-06 22:32:00,33.0,-99.9,30.14,ESE,113,10.0,15.0,-999,0.00,,,0.00,,2013-02-07 04:32:00,
2013-02-06 22:42:00,33.0,-99.9,30.14,ESE,113,10.0,15.0,-999,0.00,,,0.00,,2013-02-07 04:42:00,
2013-02-06 22:53:00,32.0,-99.9,30.13,ESE,113,12.0,14.0,-999,0.00,,,0.00,,2013-02-07 04:53:00,
2013-02-06 23:02:00,32.0,-99.9,30.12,ESE,113,15.0,18.0,-999,0.00,,,0.00,,2013-02-07 05:02:00,
2013-02-06 23:12:00,32.0,-99.9,30.12,ESE,113,15.0,18.0,-999,0.00,,,0.00,,2013-02-07 05:12:00,
2013-02-06 23:22:00,33.0,-99.9,30.12,SE,135,14.0,18.0,-999,0.00,,,0.00,,2013-02-07 05:22:00,
2013-02-06 23:32:00,32.0,-99.9,30.12,SE,135,14.0,18.0,-999,0.00,,,0.00,,2013-02-07 05:32:00,
2013-02-06 23:43:00,32.0,-99.9,30.12,SE,135,14.0,18.0,-999,0.00,,,0.00,,2013-02-07 05:43:00,
2013-02-06 23:52:00,32.0,-99.9,30.12,ESE,113,12.0,20.0,-999,0.00,,,0.00,,2013-02-07 05:52:00,